[[{"header":{"parameterUnit":"m.s-1","parameterCategory":1,"la1":30.2991,"la2":30.254,"lo1":-89.0895,"lo2":-89.0444,"dy":0.0017,"dx":0.0017,"nx":28,"ny":28,"refTime":"2025-04-27T09:00:00:Z","depth":0,"parameterNumber":2,"parameterNumberName":"U-component_of_WINDS"},"data":[0,0,0,0,0,0,0,0,0,0,0,0,0,0,0,0,0,0,0,0,0,0,0,0,0,0,0,0,0,0,0,0,0,0,0,0,0,0,0,0,0,0,0,0,0,0,0,0,0,0,0,0,0,0,0,0,0,0,0.3529,0.353,0,0.3681,0.3682,0.3684,0.3713,0.3712,0.3711,0.371,0.3868,0.3873,0.3879,0,0,0,0,0,0,0,0,0,0,0,0,0,0.3265,0.3269,0.3528,0.353,0.3532,0.368,0.3682,0.3685,0.3714,0.3712,0.3711,0.3709,0.3866,0.3873,0.3879,0,0,0,0,0,0,0,0,0,0,0,0,0,0.3394,0.3271,0.3528,0.3565,0.3569,0.368,0.3683,0.3685,0.3714,0.3712,0.371,0.3709,0.3864,0.3872,0.388,0.3966,0,0,0.3904,0.3908,0,0,0,0,0,0,0,0,0.3387,0.3404,0.3557,0.3562,0.3568,0.3676,0.3648,0.3779,0.3714,0.3659,0.371,0.3708,0.3806,0.3819,0.3851,0.3973,0.398,0.3905,0.391,0.3913,0.3916,0,0,0,0,0,0,0,0.3378,0.3398,0.3589,0.356,0.3566,0.3574,0.359,0.3673,0.3741,0.3664,0.3666,0.3684,0.3808,0.3843,0.3855,0.3982,0.3905,0.3912,0.3917,0.392,0.4182,0.4184,0,0,0,0,0,0,0.3362,0.339,0.3584,0.3593,0.3471,0.358,0.3598,0.3643,0.374,0.3753,0.3685,0.3685,0.3831,0.3846,0.3861,0.3967,0.3913,0.3921,0.3925,0.4179,0.4182,0.4184,0,0,0,0,0,0,0.3356,0.3379,0.3578,0.3492,0.3518,0.3587,0.3637,0.3647,0.3682,0.3756,0.3769,0.3708,0.383,0.3849,0.3939,0.3973,0.3924,0.3932,0.4177,0.418,0.4183,0.4181,0,0,0,0,0,0,0.3349,0.3377,0.341,0.3493,0.3523,0.3653,0.3639,0.3652,0.3696,0.3696,0.3781,0.3793,0.383,0.3927,0.3947,0.3983,0.3938,0.4174,0.4178,0.4182,0.4178,0.4183,0.4188,0,0,0,0,0,0.3339,0.3404,0.3411,0.3435,0.3565,0.3655,0.3672,0.3712,0.3698,0.3732,0.378,0.3791,0.3966,0.3936,0.3959,0.3998,0.4172,0.4177,0.4182,0.4176,0.4182,0.4188,0,0,0,0,0,0,0.3324,0.3415,0.3425,0.3518,0.3578,0.366,0.3704,0.3718,0.3784,0.3782,0.3829,0.3848,0.3935,0.3975,0.394,0.4086,0.4068,0.4078,0.4056,0.4063,0.4068,0.4056,0.3945,0,0,0,0,0,0.3331,0.3396,0.3473,0.3547,0.3577,0.3635,0.3676,0.3701,0.3766,0.3792,0.3846,0.3909,0.3978,0.4023,0.409,0.4184,0.4203,0.4222,0.4227,0.4231,0.4239,0.4291,0.43,0.42,0.42,0.42,0,0,0.3347,0.3405,0.3443,0.3546,0.3596,0.3662,0.3656,0.3727,0.3777,0.3803,0.389,0.3932,0.4005,0.4097,0.414,0.4134,0.427,0.4237,0.4239,0.4245,0.4297,0.4306,0.4314,0.4203,0.4203,0.4202,0,0,0.3411,0.3461,0.3528,0.3578,0.3653,0.3691,0.3707,0.3787,0.3815,0.3903,0.3924,0.3984,0.4103,0.4154,0.4195,0.4277,0.429,0.4298,0.4324,0.4374,0.4382,0.4389,0.4418,0.4428,0.4305,0.4305,0.4305,0,0.3421,0.3521,0.3562,0.3631,0.3676,0.3701,0.377,0.3817,0.391,0.394,0.3931,0.408,0.4131,0.4235,0.4255,0.4288,0.4308,0.4289,0.4378,0.4385,0.4393,0.4421,0.4431,0.4306,0.4306,0.4306,0.4306,0,0.3531,0.36,0.3646,0.3734,0.3784,0.3853,0.3904,0.3949,0.397,0.4009,0.4099,0.4161,0.4241,0.4268,0.429,0.4375,0.4368,0.4368,0.4352,0.4402,0.4429,0.444,0.4306,0.4306,0.4306,0.4306,0,0,0.3589,0.3698,0.3715,0.3755,0.3839,0.3894,0.3964,0.4042,0.408,0.4143,0.4203,0.4302,0.4302,0.4349,0.4377,0.4421,0.4481,0.4415,0.4417,0.4425,0.4579,0.4578,0.459,0.449,0.4492,0.4494,0.4572,0,0.3662,0.3787,0.3825,0.393,0.3995,0.4019,0.408,0.4139,0.4177,0.4238,0.428,0.4349,0.4344,0.4372,0.4417,0.4464,0.4513,0.4459,0.4546,0.4549,0.4527,0.4605,0.4605,0.4676,0.4583,0.4585,0.4587,0,0.3764,0.3829,0.394,0.4015,0.4044,0.4098,0.4172,0.423,0.4296,0.4321,0.4373,0.4397,0.4471,0.445,0.4553,0.4516,0.4554,0.4582,0.4586,0.4596,0.4571,0.4616,0.47,0.471,0.4604,0.4602,0.4601,0,0.3795,0.391,0.3991,0.4025,0.4115,0.4152,0.4192,0.4257,0.4301,0.4366,0.4395,0.4469,0.4509,0.4565,0.4607,0.4588,0.4707,0.4689,0.473,0.4728,0.4754,0.4751,0.4844,0.4778,0.4778,0.4778,0.4777,0,0.3873,0.394,0.4006,0.4056,0.4132,0.4175,0.4249,0.429,0.4347,0.4406,0.4432,0.4486,0.4539,0.4601,0.4635,0.4715,0.4733,0.4755,0.4763,0.4753,0.475,0.4778,0.4775,0.4781,0.478,0.4779,0.4779,0,0.392,0.3967,0.4057,0.4135,0.4156,0.4208,0.4275,0.4325,0.4364,0.4437,0.4457,0.4519,0.4592,0.464,0.4735,0.4758,0.4845,0.4852,0.4822,0.4826,0.4863,0.4859,0.4977,0.4995,0.4917,0.4918,0.4918,0,0.3966,0.4018,0.4101,0.4142,0.4182,0.4247,0.4292,0.4336,0.4382,0.4462,0.4502,0.4577,0.464,0.4757,0.481,0.4882,0.4891,0.4928,0.4902,0.489,0.4891,0.4888,0.4893,0.4932,0.4932,0.4933,0.4933,0,0.4043,0.4064,0.4127,0.4199,0.4252,0.4311,0.437,0.4402,0.4456,0.4507,0.4582,0.463,0.4726,0.4801,0.4878,0.4919,0.4935,0.4941,0.4954,0.4943,0.4924,0.4935,0.4833,0.4938,0.4937,0.4937,0.4937,0.4937,0.4092,0.4139,0.4204,0.4274,0.4323,0.4377,0.4427,0.4472,0.4536,0.4617,0.4639,0.4718,0.4783,0.4888,0.4931,0.4993,0.4989,0.5008,0.5012,0.5016,0.5016,0.4914,0.5007,0.5007,0.5007,0.5007,0.5007,0,0.417,0.4213,0.4277,0.4358,0.4413,0.4423,0.4488,0.4534,0.4602,0.4662,0.4722,0.4809,0.4881,0.4939,0.5014,0.5053,0.5062,0.5071,0.5068,0.5077,0.5016,0.4997,0.5062,0.5062,0.5062,0.5062,0.5062,0.5062,0.4217,0.4297,0.4325,0.443,0.4473,0.4549,0.4586,0.4636,0.4684,0.4779,0.4838,0.4876,0.4935,0.5014,0.5081,0.5096,0.5122,0.5129,0.5146,0.5088,0.5082,0.5076,0.5058,0.5134,0.5135,0.5202,0.5203,0.5203]},{"header":{"parameterUnit":"m.s-1","parameterCategory":1,"la1":30.2991,"la2":30.254,"lo1":-89.0895,"lo2":-89.0444,"dy":0.0017,"dx":0.0017,"nx":28,"ny":28,"refTime":"2025-04-27T09:00:00:Z","depth":0,"parameterNumber":3,"parameterNumberName":"V-component_of_WINDS"},"data":[0,0,0,0,0,0,0,0,0,0,0,0,0,0,0,0,0,0,0,0,0,0,0,0,0,0,0,0,0,0,0,0,0,0,0,0,0,0,0,0,0,0,0,0,0,0,0,0,0,0,0,0,0,0,0,0,0,0,2.9634,2.9634,0,2.9577,2.9577,2.9576,2.9569,2.9569,2.957,2.957,2.9507,2.9505,2.9503,0,0,0,0,0,0,0,0,0,0,0,0,0,2.9731,2.9729,2.9634,2.9633,2.9633,2.9577,2.9577,2.9576,2.9568,2.9569,2.957,2.957,2.9508,2.9506,2.9503,0,0,0,0,0,0,0,0,0,0,0,0,0,2.9683,2.9729,2.9634,2.9622,2.9621,2.9578,2.9577,2.9576,2.9568,2.9569,2.957,2.9571,2.9509,2.9506,2.9503,2.9466,0,0,2.9493,2.9491,0,0,0,0,0,0,0,0,2.9686,2.9679,2.9625,2.9623,2.9621,2.9581,2.9588,2.9539,2.9568,2.9588,2.957,2.9571,2.9531,2.9526,2.9513,2.9463,2.946,2.9492,2.949,2.9489,2.9488,0,0,0,0,0,0,0,2.9689,2.9682,2.9612,2.9624,2.9622,2.9618,2.9612,2.9578,2.9555,2.9586,2.9586,2.9579,2.953,2.9516,2.9512,2.9459,2.9492,2.9489,2.9487,2.9486,2.9374,2.9373,0,0,0,0,0,0,2.9695,2.9685,2.9613,2.961,2.9656,2.9616,2.9609,2.9593,2.9556,2.9551,2.9579,2.9579,2.9522,2.9516,2.9509,2.9463,2.9489,2.9486,2.9484,2.9375,2.9374,2.9372,0,0,0,0,0,0,2.9697,2.9689,2.9616,2.9647,2.9638,2.9613,2.9595,2.9591,2.9578,2.955,2.9545,2.9569,2.9522,2.9514,2.9477,2.946,2.9484,2.9481,2.9376,2.9374,2.9373,2.937,0,0,0,0,0,0,2.97,2.969,2.9677,2.9647,2.9636,2.9585,2.9594,2.959,2.9573,2.9573,2.954,2.9535,2.9522,2.9482,2.9473,2.9456,2.9479,2.9377,2.9375,2.9373,2.9371,2.9368,2.9366,0,0,0,0,0,2.9704,2.9677,2.9676,2.9668,2.9619,2.9584,2.9578,2.9565,2.9572,2.9557,2.9539,2.9536,2.9464,2.9478,2.9468,2.945,2.9378,2.9376,2.9374,2.9372,2.9369,2.9366,0,0,0,0,0,0,2.9705,2.9673,2.9672,2.9635,2.9613,2.9583,2.9565,2.9561,2.9535,2.9536,2.9519,2.9512,2.9475,2.9459,2.9475,2.9412,2.9421,2.9417,2.9424,2.942,2.9417,2.9421,2.9476,0,0,0,0,0,2.9701,2.9677,2.965,2.962,2.9609,2.9589,2.9573,2.9565,2.954,2.953,2.951,2.9484,2.9456,2.9437,2.9409,2.9369,2.9361,2.9352,2.9349,2.9347,2.9343,2.9319,2.9314,2.9365,2.9365,2.9365,0,0,2.9692,2.9672,2.9658,2.962,2.9602,2.9575,2.9581,2.9553,2.9533,2.9526,2.9489,2.9473,2.9443,2.9404,2.9386,2.939,2.9328,2.9344,2.9343,2.934,2.9316,2.9311,2.9307,2.9363,2.9364,2.9364,0,0,2.9663,2.9646,2.9619,2.9601,2.9573,2.956,2.9553,2.9524,2.9514,2.9477,2.9471,2.9446,2.9397,2.9376,2.9359,2.9321,2.9317,2.9312,2.9298,2.9275,2.9271,2.9267,2.9252,2.9247,2.9309,2.9309,2.9309,0,2.9656,2.9617,2.9605,2.9578,2.956,2.9554,2.9525,2.9508,2.9472,2.9459,2.9465,2.9403,2.9383,2.9338,2.9328,2.9315,2.9306,2.9316,2.9273,2.9269,2.9265,2.925,2.9245,2.9308,2.9308,2.9309,2.9309,0,2.9608,2.9582,2.9563,2.953,2.951,2.9482,2.9464,2.9446,2.9439,2.9425,2.9387,2.9362,2.9329,2.9318,2.931,2.9271,2.9274,2.9276,2.9285,2.926,2.9246,2.924,2.9308,2.9308,2.9308,2.9308,0,0,2.9578,2.9539,2.9532,2.9516,2.9485,2.9463,2.9434,2.9403,2.9386,2.9362,2.9335,2.9294,2.9296,2.9277,2.9267,2.9247,2.9216,2.9251,2.925,2.9244,2.9169,2.9167,2.9161,2.9214,2.9213,2.9212,2.9171,0,2.9544,2.9493,2.9482,2.9437,2.9412,2.9405,2.9379,2.9356,2.9342,2.9316,2.93,2.927,2.9276,2.9264,2.9243,2.9224,2.9201,2.9227,2.9187,2.9186,2.9194,2.9154,2.9151,2.9114,2.9166,2.9165,2.9164,0,2.9498,2.9473,2.9427,2.9398,2.9387,2.9364,2.9334,2.931,2.9283,2.9274,2.9253,2.9245,2.9212,2.9224,2.9177,2.9196,2.9178,2.9166,2.9165,2.9159,2.9173,2.9146,2.9102,2.9096,2.9156,2.9156,2.9157,0,2.9478,2.9434,2.94,2.9387,2.9353,2.9337,2.9322,2.9296,2.9277,2.925,2.9238,2.9207,2.919,2.9165,2.9148,2.9159,2.9103,2.9113,2.9092,2.9093,2.908,2.9081,2.9032,2.9071,2.9071,2.9071,2.9071,0,2.9441,2.9412,2.9391,2.937,2.9337,2.9323,2.929,2.9275,2.9252,2.9226,2.9218,2.9194,2.9174,2.9147,2.9133,2.9096,2.9088,2.9078,2.9075,2.9078,2.9079,2.9066,2.9068,2.907,2.907,2.907,2.9071,0,2.9414,2.9398,2.936,2.9332,2.9324,2.9301,2.9275,2.9253,2.9239,2.9206,2.9198,2.9174,2.9142,2.9123,2.9081,2.9072,2.903,2.9029,2.904,2.9038,2.9017,2.9019,2.8957,2.8947,2.8994,2.8994,2.8994,0,2.939,2.9368,2.9337,2.932,2.9305,2.9278,2.926,2.9244,2.9225,2.9192,2.9174,2.9141,2.9114,2.9062,2.9039,2.9007,2.9004,2.8984,2.8999,2.9003,2.9002,2.9003,2.9,2.8981,2.8981,2.8981,2.898,0,2.935,2.9343,2.9318,2.9289,2.9267,2.9243,2.922,2.9206,2.9186,2.9164,2.9132,2.9111,2.9068,2.9035,2.9001,2.8983,2.8977,2.8976,2.8969,2.8972,2.8979,2.8973,2.9031,2.8977,2.8978,2.8978,2.8978,2.8978,2.9323,2.9303,2.9278,2.9249,2.923,2.9207,2.9185,2.9168,2.9141,2.9107,2.9099,2.9064,2.9036,2.899,2.8971,2.8942,2.8945,2.8936,2.8933,2.8931,2.8929,2.8985,2.8936,2.8936,2.8936,2.8936,2.8936,0,2.9281,2.9265,2.9238,2.9206,2.9183,2.9182,2.9155,2.9135,2.9105,2.908,2.9054,2.9015,2.8982,2.8958,2.8924,2.8905,2.8902,2.8897,2.8897,2.8893,2.8929,2.8938,2.89,2.89,2.89,2.89,2.89,2.89,2.9257,2.9222,2.9212,2.9167,2.915,2.9117,2.9101,2.908,2.906,2.9018,2.8991,2.8976,2.8951,2.8915,2.8884,2.8878,2.8865,2.886,2.8853,2.8887,2.8891,2.8894,2.8902,2.8858,2.8858,2.8819,2.8819,2.8819]}]]